User: anonymous   Login
Location: ???? ?????????
(31.1304°N, 31.7111°E)
Time: 01:10:09
(UTC+00:00)
Language:

Cosmos 1553 Rocket - Orbit

View from above orbital plane
View from above orbital plane
View from above satellite
View from above satellite

Ground track
Ground track

The orbit data is extracted from the following two-line orbital elements,

1 14974U 84046B   21021.59551653  .00000083  00000-0  69130-4 0  9996
2 14974  82.9336 244.3853 0043922 283.2445 104.8091 13.76941894842846
Epoch (UTC): 21 January 2021 14:17:32
Eccentricity: 0.0043922
inclination: 82.9336°
perigee height: 942 km
apogee height: 1007 km
right ascension of ascending node: 244.3853°
argument of perigee: 283.2445°
revolutions per day: 13.76941894
mean anomaly at epoch: 104.8091°
orbit number at epoch: 84284

The dashed part of the orbit path shows where the satellite is in the earth's shadow,  

DLR